Marshfield, WI

8:55 AM CST on December 15, 2017 (GMT -0600)
Marshfield Municipal

Weather History for KMFI - March, 2013

Change the Weather History Date:

Saturday, March 2, 2013

  Actual Average Record
Temperature  
Mean Temperature 14 °F -  
Max Temperature 25 °F 33 °F 55 °F (1923)
Min Temperature 3 °F 15 °F -20 °F (1913)
Degree Days  
Heating Degree Days 51    
Moisture  
Dew Point 5 °F    
Average Humidity 65    
Maximum Humidity 91    
Minimum Humidity 45    
Precipitation  
Precipitation 0.00 in - - ()
Sea Level Pressure  
Sea Level Pressure 30.27 in    
Wind  
Wind Speed 7 mph (NNW)    
Max Wind Speed 12 mph    
Max Gust Speed -    
Visibility 10 miles    
Events      
Averages and records for this station are not official NWS values.
T = Trace of Precipitation, MM = Missing Value Source: NWS Daily Summary

Daily Weather History Graph

Daily Weather History Graph

Search for Another Location

Airport or City:

Trip Planner

Search our weather history database for the weather conditions in past years. The results will help you decide how hot, cold, wet, or windy it might be!

Date:

Astronomy

Mar. 02, 2013 Rise Set
Actual Time 6:36 AM CST 5:50 PM CST
Civil Twilight 6:06 AM CST 6:19 PM CST
Nautical Twilight 5:33 AM CST 6:53 PM CST
Astronomical Twilight 4:59 AM CST 7:27 PM CST
Moon 11:45 PM CST (3/2) 8:49 AM CST (3/2)
Length of Visible Light 12h 12m
Length of Day
11h 14m
Waning Gibbous, 74% of the Moon is Illuminated
Mar 2
Waning Gibbous
Mar 4
Last Quarter
Mar 11
New
Mar 19
First Quarter
Mar 27
Full

Hourly Weather History & Observations

Time (CST) Temp. Windchill Dew Point Humidity Pressure Visibility Wind Dir Wind Speed Gust Speed Precip Events Conditions
1:54 AM 12.9 °F 6.9 °F 5.0 °F 71% 30.32 in 10.0 mi NE 3.5 mph - N/A   Clear
2:54 AM 12.0 °F 2.7 °F 5.0 °F 73% 30.31 in 10.0 mi North 5.8 mph - N/A   Clear
3:54 AM 10.9 °F 1.4 °F 3.9 °F 73% 30.30 in 10.0 mi NNE 5.8 mph - N/A   Clear
4:54 AM 8.1 °F -5.3 °F 1.9 °F 76% 30.32 in 10.0 mi North 9.2 mph - N/A   Clear
5:54 AM 3.9 °F -10.4 °F -0.0 °F 84% 30.33 in 10.0 mi NNW 9.2 mph - N/A   Clear
6:54 AM 3.0 °F -10.5 °F 1.0 °F 91% 30.33 in 10.0 mi North 8.1 mph - N/A   Clear
7:54 AM 6.1 °F -5.6 °F -0.0 °F 76% 30.33 in 10.0 mi NNW 6.9 mph - N/A   Clear
8:54 AM 14.0 °F 5.1 °F 6.1 °F 71% 30.32 in 10.0 mi North 5.8 mph - N/A   Clear
9:54 AM 17.1 °F 11.7 °F 7.0 °F 65% 30.32 in 10.0 mi Variable 3.5 mph - N/A   Clear
10:54 AM 18.0 °F 6.9 °F 7.0 °F 62% 30.30 in 10.0 mi NNE 9.2 mph - N/A   Clear
11:54 AM 19.0 °F 8.2 °F 8.1 °F 62% 30.29 in 10.0 mi NNW 9.2 mph - N/A   Clear
12:54 PM 21.0 °F 9.3 °F 9.0 °F 60% 30.27 in 10.0 mi NW 11.5 mph - N/A   Clear
1:54 PM 21.9 °F 11.7 °F 8.1 °F 55% 30.25 in 10.0 mi NW 9.2 mph - N/A   Clear
2:54 PM 24.1 °F 14.4 °F 8.1 °F 51% 30.23 in 10.0 mi NW 9.2 mph - N/A   Clear
3:54 PM 25.0 °F 15.5 °F 6.1 °F 45% 30.22 in 10.0 mi NW 9.2 mph - N/A   Clear
4:54 PM 23.0 °F 14.7 °F 8.1 °F 53% 30.24 in 10.0 mi West 6.9 mph - N/A   Clear
5:54 PM 21.0 °F 14.6 °F 6.1 °F 53% 30.24 in 10.0 mi West 4.6 mph - N/A   Clear
6:54 PM 19.0 °F 12.3 °F 5.0 °F 54% 30.24 in 10.0 mi West 4.6 mph - N/A   Clear
7:54 PM 16.0 °F 7.4 °F 3.9 °F 59% 30.23 in 10.0 mi WNW 5.8 mph - N/A   Clear
8:54 PM 15.1 °F 4.2 °F 3.9 °F 61% 30.23 in 10.0 mi NW 8.1 mph - N/A   Partly Cloudy
9:54 PM 15.1 °F 5.2 °F 6.1 °F 68% 30.21 in 10.0 mi NNW 6.9 mph - N/A   Partly Cloudy
10:54 PM 10.0 °F -1.9 °F 3.0 °F 73% 30.21 in 10.0 mi NNW 8.1 mph - N/A   Partly Cloudy
11:54 PM 14.0 °F 6.5 °F 5.0 °F 67% 30.20 in 10.0 mi North 4.6 mph - N/A   Partly Cloudy